Wind_Speed
24 23 23 22 21 23 23 23 23 24 24 24 24 24 24 24 22 21 20 19 18 17 16 15 14 13 13 12 11 11 11 11 11 11 12 12 12 12 12 12 11 11 11 11 11 12 12 12 12 11 11 11 10 11 10 10 10 10 11 11 11 11 11 10 10 11 11 11 11 11 11 12 11 10 11 10 10 11 12 12 12 12 12 12 12
25 24 22 21 20 20 21 21 22 23 24 24 24 24 23 23 21 20 19 18 17 17 16 15 14 13 12 10 10 11 11 11 11 12 12 13 12 12 12 12 11 11 11 11 11 12 12 12 12 12 11 11 11 11 11 11 10 10 10 10 11 11 10 10 10 10 10 10 10 10 10 11 11 10 10 10 10 11 12 12 12 12 11 12 12
26 24 21 21 20 19 20 21 21 22 22 22 23 23 22 21 20 19 17 16 16 16 15 14 13 12 11 10 11 11 12 12 12 12 13 12 12 12 12 12 11 10 11 11 11 11 12 12 12 11 11 11 12 12 12 12 11 11 11 10 11 10 10 9 9 9 10 9 9 9 10 11 10 9 9 10 9 11 12 12 12 12 12 12 12
26 24 22 21 20 20 20 21 22 22 21 21 21 21 20 19 18 17 16 15 15 15 14 13 12 11 11 11 11 12 13 13 13 13 12 12 12 12 12 11 10 10 11 11 11 10 11 12 12 11 11 11 12 12 12 12 12 11 11 10 10 10 9 9 9 9 9 9 9 9 10 10 10 9 9 9 9 12 14 13 13 13 13 13 12
26 25 24 22 20 20 20 21 21 21 20 19 19 19 18 17 17 16 15 15 14 14 13 13 12 12 12 13 12 13 13 13 12 12 12 12 12 12 11 11 10 10 10 11 11 10 10 11 11 11 11 11 11 12 12 12 12 11 11 10 10 9 8 8 9 9 9 9 9 9 10 9 9 8 9 9 9 11 13 14 14 13 13 13 12
26 26 24 22 19 19 20 20 20 19 18 17 17 17 16 16 15 15 14 14 14 13 13 14 13 13 13 13 13 13 13 12 12 12 12 13 12 12 11 10 9 10 10 11 11 10 10 10 11 10 11 11 11 11 11 11 11 11 11 10 10 10 9 9 9 9 9 8 8 9 9 9 8 7 8 9 9 11 13 13 14 13 13 13 13
26 25 23 21 19 18 19 18 17 16 16 15 15 15 14 14 14 14 14 14 14 13 14 14 13 13 13 13 13 12 12 11 11 12 12 12 12 11 11 10 9 10 10 11 11 10 10 10 10 10 10 10 10 11 11 10 10 10 11 11 10 11 10 10 9 10 10 9 8 9 9 9 8 9 9 9 10 11 12 12 12 12 13 13 13
26 24 23 21 19 19 18 17 16 14 14 14 14 15 14 14 15 15 15 14 14 14 14 14 14 13 13 12 12 12 11 11 11 11 11 11 11 10 10 9 9 9 9 10 11 11 11 10 10 11 11 10 10 10 10 10 10 10 10 11 11 11 11 10 10 11 11 10 10 10 10 10 9 10 11 10 11 12 12 11 10 10 12 12 12
25 23 23 21 20 19 17 16 15 14 14 14 15 15 15 15 15 16 15 15 14 14 14 14 14 13 13 12 12 11 11 11 11 11 10 10 10 10 10 9 9 9 9 10 11 11 11 10 10 10 11 11 10 10 10 10 10 10 10 11 10 11 11 11 11 12 12 10 10 10 9 10 11 11 12 12 12 12 12 12 10 10 10 10 11
25 23 23 21 20 19 17 15 15 15 15 15 16 16 16 15 15 16 15 15 14 14 13 14 13 12 12 12 12 11 11 11 11 10 10 10 10 10 10 9 9 9 9 10 11 11 11 10 10 10 10 10 10 10 10 10 10 10 10 10 10 10 11 11 12 13 13 11 11 11 10 11 12 12 13 12 12 13 12 12 11 11 9 9 11
24 23 23 21 20 18 16 15 15 15 15 16 16 16 16 15 15 15 15 15 14 13 13 13 12 12 11 11 11 11 11 11 11 11 10 10 10 10 10 10 9 9 9 10 10 10 10 10 10 10 10 10 10 10 10 9 9 10 10 10 10 10 11 11 11 12 13 12 11 12 11 11 13 13 13 13 13 13 13 12 11 11 10 10 12
24 23 23 22 20 18 16 15 15 15 16 16 16 16 16 15 15 15 15 14 14 13 13 12 12 11 11 11 11 11 11 11 11 11 11 11 10 10 10 10 9 10 10 10 10 10 10 9 9 9 9 9 10 10 10 10 9 9 10 9 10 10 10 10 11 12 13 12 12 12 11 12 13 13 13 13 13 12 13 12 11 12 12 11 11
25 24 23 21 19 17 17 16 16 16 17 17 16 16 15 15 15 14 14 14 13 13 12 12 11 11 11 11 11 11 12 12 11 11 11 11 11 11 10 10 10 10 10 10 10 10 9 8 8 9 9 9 10 10 10 10 10 9 10 10 10 10 10 11 11 12 13 12 12 11 11 12 13 13 13 13 13 12 12 12 11 12 12 11 10
26 25 24 21 19 18 17 17 17 17 17 16 16 15 14 14 14 13 13 13 12 12 12 11 12 12 12 12 11 12 12 12 11 11 11 11 11 11 10 10 10 10 10 10 10 9 9 8 8 9 9 9 10 10 10 10 9 9 10 10 10 10 10 11 12 12 13 13 12 11 11 12 13 13 13 12 12 11 11 12 11 12 12 10 10
26 25 23 21 19 18 18 17 17 17 16 16 15 14 13 13 12 12 12 12 11 11 12 11 12 12 12 12 12 12 12 12 12 11 11 11 11 11 11 10 10 10 10 10 10 9 9 9 9 9 9 9 9 10 10 9 9 9 9 10 10 11 11 10 11 13 13 12 11 11 11 11 12 13 13 12 12 11 11 12 11 11 11 10 10
26 25 23 21 19 18 18 17 17 16 15 15 14 13 13 12 12 12 12 12 11 11 11 12 12 11 12 12 12 12 12 12 12 12 11 11 11 11 11 10 10 10 10 9 9 9 9 9 9 9 9 9 9 9 9 9 9 9 9 9 10 10 11 11 11 12 12 12 11 10 10 10 11 12 11 11 11 10 11 11 11 11 11 10 10
25 24 23 21 20 19 18 17 17 16 15 14 14 14 13 13 12 12 12 12 12 11 11 12 12 11 11 11 12 12 13 12 11 12 12 11 11 11 10 10 10 9 9 9 9 9 9 9 9 9 9 9 9 9 9 9 9 9 9 9 9 10 11 11 11 11 11 11 11 9 9 10 10 10 9 9 9 9 8 9 10 11 10 9 10
24 24 23 21 20 19 19 18 17 15 14 14 14 14 14 13 12 12 12 12 12 11 11 11 11 11 11 11 12 12 12 12 12 12 12 11 11 11 11 10 10 9 9 8 8 8 8 9 9 9 9 9 9 9 9 9 9 8 9 9 8 9 10 11 10 10 10 10 11 10 9 9 9 9 8 8 8 8 7 8 10 10 10 9 9
24 24 22 21 21 20 19 18 17 16 15 15 14 14 13 13 12 12 12 12 12 11 11 11 11 11 11 12 12 12 12 12 12 12 12 11 11 11 10 11 10 9 8 8 8 8 8 8 8 8 8 8 9 9 9 9 9 8 8 9 8 8 9 10 9 10 10 10 10 9 9 9 9 8 7 7 7 7 6 7 8 9 10 9 9
24 24 22 21 21 20 20 18 17 17 16 16 15 14 13 13 13 13 13 13 12 11 11 11 12 11 12 12 12 12 12 12 12 11 11 11 10 10 10 10 10 10 9 8 8 8 8 8 8 8 8 8 8 9 9 9 9 8 9 8 8 8 8 8 8 9 9 9 9 8 9 9 9 8 7 7 6 6 5 6 7 7 8 8 8
23 23 22 22 21 20 20 18 18 18 17 16 15 15 14 14 14 14 14 13 12 12 11 11 12 11 12 12 12 12 12 12 12 10 10 10 9 9 9 9 9 9 9 9 9 9 8 8 8 8 8 8 8 9 9 9 9 9 9 8 8 7 7 7 8 9 8 8 8 7 8 10 9 9 7 7 6 6 5 5 6 6 6 6 7
24 23 21 22 21 20 20 19 19 18 17 17 16 15 14 14 14 15 14 13 13 12 12 12 12 12 12 13 13 13 12 12 11 10 9 9 8 8 8 8 8 8 8 8 8 8 8 8 7 7 8 8 8 9 9 10 9 9 8 8 7 7 7 7 7 8 7 7 7 6 7 8 9 9 8 7 7 6 5 5 5 6 5 5 5
27 24 22 22 21 20 20 19 19 18 17 17 16 15 14 15 15 15 14 14 14 13 13 13 13 13 13 14 13 13 12 11 11 10 9 8 7 6 7 7 7 7 6 6 7 7 7 7 7 7 7 8 8 9 10 10 10 9 9 8 8 7 7 7 7 7 7 7 6 6 7 7 7 8 9 8 7 6 5 4 4 5 5 4 4
28 26 25 24 22 21 21 20 20 19 18 17 17 16 15 16 16 15 14 14 14 14 13 13 14 14 15 14 13 13 12 11 10 9 8 7 6 6 6 6 6 6 6 6 5 6 6 6 6 7 7 8 9 10 10 11 11 10 10 9 9 8 8 7 7 6 6 6 6 6 7 7 7 7 7 8 7 6 5 4 4 4 4 3 3
28 26 26 27 24 22 21 21 20 20 19 18 18 16 15 16 16 15 15 15 15 14 13 13 14 15 16 15 13 12 11 10 9 8 7 6 6 5 5 5 5 5 6 6 5 5 5 5 5 6 7 8 9 9 9 10 10 10 11 10 10 10 9 8 7 5 5 5 5 6 6 6 6 6 6 7 7 7 7 5 5 5 4 3 2
27 25 27 28 26 24 22 22 21 20 20 19 19 17 17 16 17 16 15 15 14 14 13 14 15 15 16 15 13 11 10 8 7 7 5 5 5 5 5 5 4 4 4 4 4 4 3 3 3 5 6 7 8 8 8 8 9 9 9 10 10 10 10 9 7 6 5 4 4 5 5 5 5 5 5 6 7 7 7 6 6 5 4 3 2
26 24 28 28 27 26 24 23 23 22 21 21 20 18 18 17 17 17 16 15 14 14 14 15 15 15 15 14 13 11 9 7 6 6 5 5 4 4 4 4 4 3 3 3 2 2 1 0 1 3 4 5 6 6 6 7 7 8 9 9 9 8 8 8 8 7 5 4 3 3 3 4 4 4 4 5 6 7 7 6 5 4 4 3 2
25 24 29 30 28 27 26 25 24 23 23 22 21 20 19 18 18 17 17 16 15 15 15 16 15 15 14 13 12 11 9 7 6 6 5 5 5 4 3 3 3 2 2 1 1 0 1 1 1 1 2 3 3 3 4 5 6 8 8 8 8 7 7 7 7 7 6 4 3 2 3 3 3 3 3 4 4 5 6 6 5 4 3 3 3
25 27 31 31 29 28 27 26 26 25 24 23 22 21 20 19 19 18 18 17 17 15 15 15 14 14 13 12 11 10 9 7 6 5 5 5 5 5 4 3 2 2 2 2 1 1 1 2 2 2 2 2 2 1 2 3 4 6 7 7 7 6 5 5 6 6 6 4 3 2 2 3 3 2 2 2 3 3 4 4 5 5 4 3 3
28 30 32 32 30 28 28 27 26 25 24 23 23 22 21 20 20 19 19 18 17 16 15 15 14 13 13 12 11 10 9 9 7 6 5 5 5 4 4 3 2 2 2 2 2 2 2 2 3 3 3 3 3 2 1 1 2 4 5 6 7 6 4 3 4 5 6 5 3 2 3 3 3 3 2 2 2 2 2 2 3 4 4 4 3
31 33 33 32 30 29 28 28 27 26 25 24 23 22 21 20 20 19 19 17 16 16 15 14 14 13 13 12 12 11 11 10 8 6 6 5 4 3 3 3 2 2 2 2 2 2 2 2 2 3 3 2 3 3 3 2 1 2 4 5 6 5 3 3 4 5 5 5 3 1 2 3 3 3 2 1 1 1 1 1 2 2 3 3 3
32 34 34 33 31 30 29 29 28 27 25 24 23 22 20 20 19 19 18 17 16 15 14 13 13 13 13 13 13 12 11 9 8 7 6 4 4 3 3 3 2 2 1 2 2 2 2 2 2 2 3 2 2 4 3 2 2 2 3 4 5 5 3 3 4 4 4 5 4 2 2 3 3 2 2 1 1 0 0 0 0 1 1 2 2
33 34 35 34 33 31 31 30 29 28 26 24 23 21 20 19 18 18 18 17 16 15 14 12 12 12 13 14 13 12 11 9 8 7 6 4 3 3 3 3 2 1 2 2 2 2 2 2 1 1 2 1 2 4 4 3 3 2 2 4 5 4 3 3 3 3 3 4 3 3 3 3 3 1 1 1 1 0 0 1 1 1 1 1 2
35 34 36 35 34 33 32 32 30 29 27 25 23 22 20 19 18 17 17 17 16 14 14 13 12 12 12 13 12 12 11 9 8 7 6 4 3 3 3 3 2 2 2 2 2 2 1 1 1 1 1 1 2 4 5 4 3 2 1 3 4 3 3 3 3 3 3 3 3 3 4 4 3 2 1 1 1 1 1 1 1 2 2 2 2
37 35 36 36 35 35 34 33 32 29 28 26 24 22 20 19 18 17 16 16 15 14 14 13 13 12 13 12 12 11 10 9 8 7 5 4 4 3 3 3 2 2 1 2 2 2 2 1 2 2 2 3 3 4 5 4 3 3 0 2 3 3 4 4 3 3 3 3 3 4 4 4 3 3 2 1 2 2 3 2 2 2 2 3 3
38 36 36 37 36 36 35 34 32 30 28 27 25 23 21 19 17 16 16 15 14 14 13 13 13 13 13 13 12 11 10 8 7 6 5 4 4 4 4 3 2 1 1 2 2 2 2 1 2 2 2 2 3 3 4 4 3 3 1 1 4 4 4 3 3 3 3 4 4 4 4 3 3 2 2 2 2 3 4 3 3 2 2 3 3
38 37 36 37 38 37 36 34 33 31 29 27 25 24 22 20 18 16 16 15 14 13 13 13 13 13 13 13 13 11 10 8 7 6 5 5 4 4 4 3 2 1 1 1 1 1 1 1 1 2 1 2 2 3 4 4 3 3 1 2 4 4 3 2 2 3 4 5 5 4 3 3 2 2 2 2 1 1 3 3 4 3 3 3 3
39 38 37 37 38 38 37 35 34 32 30 28 27 25 23 21 19 18 17 16 15 14 13 13 13 14 13 13 13 12 10 9 7 6 5 5 4 4 3 2 1 1 0 1 1 2 2 1 1 2 2 2 1 1 3 4 4 3 3 3 4 4 3 1 1 3 5 6 5 4 4 3 3 3 2 2 2 1 1 2 3 3 3 4 4
41 39 38 37 37 38 37 37 35 33 32 30 28 26 25 23 21 20 18 17 16 15 14 14 14 14 13 13 13 12 11 9 7 6 5 5 4 3 2 2 1 1 0 1 1 2 2 2 2 3 2 2 1 2 4 5 5 4 4 4 3 3 2 1 1 3 5 6 6 6 5 5 4 3 2 2 3 3 3 2 1 1 2 3 4
43 41 40 39 38 38 38 38 37 35 33 32 30 28 27 26 24 22 21 19 18 17 16 15 15 15 14 13 13 13 11 10 8 7 6 5 5 4 2 1 1 1 1 1 1 2 3 3 3 3 3 3 3 4 5 5 4 3 4 3 2 1 1 1 1 3 6 7 7 7 6 6 5 3 3 2 2 3 3 3 2 1 1 2 3
44 43 42 41 40 39 39 39 38 37 36 34 33 31 30 28 27 25 23 21 19 18 17 16 16 16 15 14 13 12 11 10 9 7 6 5 5 5 5 3 2 2 2 2 2 3 4 5 4 3 3 3 3 3 3 3 2 2 3 3 2 1 2 0 2 4 7 7 6 6 6 7 6 5 4 3 3 3 2 2 2 1 1 2 3
45 45 43 42 41 41 40 40 39 38 37 36 34 33 32 30 28 26 24 22 20 19 18 17 16 16 15 15 14 13 12 11 9 8 6 5 5 5 6 5 4 3 2 3 3 3 4 5 4 3 3 4 3 3 3 2 1 2 3 2 1 1 2 0 2 4 5 5 4 4 4 5 5 5 5 5 4 4 3 2 2 2 2 2 3
45 45 44 43 43 42 42 41 40 39 38 37 36 34 32 30 28 26 24 23 21 20 19 18 17 17 16 16 15 14 13 11 10 9 7 6 5 5 6 7 6 4 3 3 4 3 3 4 4 4 4 4 4 5 5 4 2 1 2 2 1 2 2 1 2 3 4 3 3 2 2 3 3 3 4 4 3 3 3 3 4 4 4 3 3
46 45 45 45 44 44 43 43 42 40 39 38 37 35 33 31 29 27 25 24 23 21 21 19 19 19 19 18 17 16 14 13 11 10 8 7 6 6 7 8 7 6 5 4 4 3 3 4 5 5 5 4 4 5 6 5 3 2 2 1 2 2 2 1 2 3 4 4 3 2 2 1 0 1 1 2 2 2 2 3 4 5 5 5 4
47 47 46 45 44 44 43 43 42 41 40 39 37 36 35 33 31 30 28 27 26 24 24 23 21 20 20 20 19 17 15 14 12 10 8 7 6 6 7 8 8 7 6 5 4 3 3 3 4 5 5 5 4 4 5 5 4 4 3 2 2 2 2 2 3 4 4 4 4 3 2 2 2 2 1 1 2 1 1 2 4 5 6 5 4
49 47 45 44 43 42 42 43 43 42 41 40 39 38 37 35 34 33 31 30 29 28 26 25 22 21 21 20 19 18 16 15 13 11 9 8 7 6 7 8 8 8 8 6 5 4 3 3 3 4 5 6 5 4 4 5 5 6 5 4 3 3 3 4 4 4 5 5 5 5 4 3 3 3 3 2 3 3 2 2 3 4 6 5 5
49 47 45 44 43 42 41 41 42 42 41 41 40 39 38 37 36 34 33 32 30 29 27 25 23 21 20 19 19 19 18 16 14 12 11 9 8 7 7 7 8 9 9 8 6 5 4 3 4 5 6 6 6 5 5 6 7 7 7 6 5 5 5 5 5 5 6 6 5 5 5 5 4 4 4 4 4 5 4 3 3 3 4 4 5
48 47 46 45 43 42 40 40 40 41 41 41 40 40 39 38 37 36 34 33 31 30 27 26 25 23 21 20 19 19 18 17 15 13 13 11 10 9 8 8 8 8 9 8 7 6 5 5 4 5 6 6 6 6 6 6 7 8 8 7 6 6 6 7 6 6 7 7 7 6 5 5 6 6 5 5 5 5 5 5 4 4 3 4 4
47 48 47 45 43 41 39 39 40 40 40 40 40 40 40 39 38 37 36 35 33 31 29 28 27 25 23 22 20 19 18 17 16 15 15 14 12 11 10 9 8 7 8 8 8 7 6 6 6 6 6 6 6 7 7 7 8 9 9 9 8 7 7 8 8 8 8 8 8 7 6 7 7 7 5 5 5 5 5 5 5 5 4 4 4
48 48 47 45 43 41 40 40 40 40 39 38 38 39 39 39 38 38 37 36 34 33 31 30 29 28 26 24 22 21 19 18 17 16 16 16 14 13 12 11 9 8 7 7 7 7 7 7 7 7 7 7 7 7 8 7 8 9 9 10 10 9 8 8 8 8 8 9 10 9 8 8 8 8 6 5 6 6 7 7 7 6 6 6 6
48 48 47 45 43 42 41 40 39 39 39 38 37 37 37 37 37 37 37 36 35 33 32 32 32 30 28 26 24 22 20 19 18 17 17 17 17 15 14 12 11 10 9 8 8 8 7 8 8 8 8 7 7 8 8 8 8 9 9 10 10 9 9 9 8 8 8 9 10 11 9 9 10 10 9 7 8 9 9 9 9 8 7 7 7
Wind_Direction
142 137 132 131 128 129 131 132 135 135 130 130 133 136 140 140 142 143 145 146 144 143 142 142 141 136 136 134 127 118 110 106 103 102 104 105 105 101 97 94 91 88 84 79 78 82 85 86 85 87 87 87 92 99 103 104 106 108 108 110 113 113 113 113 115 115 115 114 113 113 115 117 117 117 117 116 113 110 108 106 105 103 102 101 101
145 140 135 133 128 126 126 128 131 131 130 131 134 137 140 140 142 143 144 143 140 141 142 141 139 137 135 129 118 112 107 104 103 105 106 106 104 101 99 98 93 89 84 79 78 83 86 87 86 87 88 88 91 97 103 105 107 107 108 110 109 109 112 113 115 114 115 114 113 116 119 119 117 121 124 121 119 114 110 109 109 109 107 106 104
145 142 138 136 130 127 129 130 130 130 130 131 133 136 139 140 143 143 143 142 139 140 139 138 136 133 127 118 113 111 109 108 107 107 106 105 104 103 103 101 97 93 86 81 79 83 86 87 86 86 88 88 90 93 98 103 106 107 107 105 105 107 109 110 111 111 112 114 115 117 119 118 119 123 126 125 126 123 117 117 117 115 112 108 104
146 144 141 139 133 131 133 131 131 131 132 133 135 136 139 140 141 142 143 142 140 138 135 133 129 124 119 115 114 114 114 112 110 107 105 105 105 105 105 102 100 96 88 84 82 82 85 87 87 87 88 88 90 92 94 98 99 101 101 101 102 103 104 105 106 106 107 111 114 117 119 119 121 125 130 131 130 127 124 122 118 114 111 106 102
148 146 144 141 135 134 135 134 133 134 135 136 138 139 141 143 145 146 145 143 139 136 133 130 127 124 120 118 119 118 117 113 111 108 106 105 106 107 105 102 101 97 91 86 82 82 85 87 89 89 87 88 90 92 94 94 93 94 93 93 96 96 96 97 98 101 103 105 109 115 118 118 125 131 133 131 128 125 123 120 116 113 109 105 102
149 147 144 141 137 138 139 138 139 139 140 141 143 144 145 146 145 142 138 135 133 133 132 131 131 128 123 122 122 120 118 115 113 110 108 107 108 108 104 103 101 97 93 88 83 81 84 86 88 88 87 89 92 94 95 93 92 92 89 88 91 95 95 94 96 99 99 101 105 112 115 116 122 123 118 119 119 115 112 111 110 111 108 105 103
149 146 144 141 140 143 143 143 144 143 144 145 145 142 141 138 134 131 128 128 129 131 133 133 132 129 126 124 123 121 120 117 115 111 109 110 111 109 107 105 102 101 96 90 86 82 82 82 85 87 87 90 94 95 96 95 93 92 89 88 88 91 93 94 96 97 98 101 104 110 114 114 113 110 113 117 114 107 100 98 100 105 105 103 100
148 146 145 143 144 148 148 147 147 145 145 144 140 134 131 130 128 128 128 129 129 130 132 132 131 130 128 127 126 125 122 120 117 112 111 111 111 110 109 107 103 103 97 93 90 86 84 82 84 87 89 91 94 93 94 95 93 91 89 88 88 88 88 88 88 91 95 99 100 103 109 112 112 111 115 119 117 111 107 102 96 94 97 96 94
150 149 148 145 148 152 150 150 147 145 144 140 134 129 128 129 130 131 131 130 129 130 131 131 132 132 131 131 130 129 126 123 119 116 114 112 112 112 111 108 105 102 97 95 92 88 86 87 87 89 90 91 91 91 91 92 93 92 89 88 89 89 85 82 79 83 90 96 98 97 104 111 113 114 115 119 117 113 111 107 99 89 84 87 92
151 150 150 148 151 155 153 151 147 144 141 137 133 130 130 131 133 134 133 131 130 130 132 132 133 135 133 133 133 130 127 123 120 118 115 114 115 114 111 108 106 102 97 95 93 91 91 92 91 91 92 92 91 90 90 89 90 90 89 88 91 92 88 84 80 81 87 94 98 94 96 105 109 112 116 119 115 111 110 105 102 95 85 88 96
152 152 151 151 154 156 154 151 148 146 142 138 135 133 131 133 136 136 134 133 133 133 134 135 134 136 133 132 131 127 125 122 121 119 118 117 117 115 110 109 107 103 98 94 92 91 90 90 89 89 88 89 89 89 91 91 92 91 90 90 92 91 89 87 85 84 88 96 99 92 89 97 104 109 115 117 113 112 110 105 101 96 94 99 100
154 154 153 153 155 155 154 152 151 148 143 140 137 137 135 137 138 137 136 135 136 137 136 135 134 132 129 129 126 123 123 122 119 116 117 118 117 114 110 109 107 102 97 91 88 86 86 86 85 85 83 85 87 88 91 93 94 93 91 89 88 86 86 87 88 88 89 96 99 95 90 92 97 103 110 113 112 111 108 102 94 93 101 108 106
156 156 156 155 155 156 154 153 152 147 143 142 141 142 141 141 141 139 137 137 139 138 135 133 131 128 126 124 121 121 120 119 116 112 113 115 114 111 109 107 103 98 93 87 84 82 84 84 83 83 84 85 86 87 89 92 94 94 92 89 87 83 81 84 87 88 89 92 96 98 94 92 94 98 104 108 108 108 103 96 92 98 108 112 110
157 158 158 157 157 155 154 152 150 146 145 144 144 145 146 145 143 143 141 141 142 137 134 132 130 126 123 120 119 121 120 118 114 111 111 110 109 108 106 103 99 94 88 85 83 83 83 82 81 81 83 84 84 86 87 90 92 92 93 92 91 85 81 82 85 86 87 90 92 96 95 94 97 99 104 109 111 109 101 95 96 104 112 116 113
158 159 159 159 157 155 154 152 150 146 148 148 147 148 149 149 147 148 145 145 147 139 134 131 128 124 122 121 121 121 118 116 113 112 111 108 107 105 101 98 95 91 86 84 83 83 81 80 79 80 81 82 82 85 87 90 91 91 92 91 90 89 86 84 84 85 86 87 87 90 93 95 99 101 106 113 115 112 105 102 101 106 114 119 115
159 159 160 161 158 156 155 154 153 150 153 152 149 150 149 151 150 151 148 146 148 142 134 130 127 124 123 122 120 119 117 115 114 113 109 106 104 101 98 96 93 89 87 85 84 83 82 82 79 79 80 80 82 85 88 88 90 90 91 91 90 91 90 88 86 85 86 86 85 84 87 92 95 97 102 109 110 109 108 107 105 106 113 119 116
161 161 162 163 160 156 156 156 156 155 156 154 150 151 150 149 148 148 148 146 146 142 135 131 128 125 123 121 119 118 118 117 115 111 107 103 99 96 95 94 91 88 88 87 85 83 82 85 82 81 80 80 83 84 86 88 90 89 89 91 92 92 91 89 85 85 86 85 85 83 83 88 91 94 99 102 100 106 115 115 111 109 111 118 118
165 164 164 166 162 158 158 158 158 160 159 155 151 151 150 147 144 145 145 144 145 142 138 133 129 125 122 121 120 119 119 119 116 113 109 104 98 96 95 92 92 90 91 90 87 85 84 87 87 87 86 83 85 85 86 90 91 89 91 91 90 92 90 88 84 85 86 83 83 86 90 91 93 98 105 108 110 119 132 128 119 115 114 115 116
168 167 168 168 164 160 160 161 162 164 159 153 152 151 149 145 143 143 142 144 145 143 140 135 130 127 126 125 124 123 123 123 120 117 112 106 103 100 97 93 93 93 93 91 87 86 85 86 88 92 93 90 87 88 88 89 93 92 92 89 88 90 88 88 86 86 86 85 85 88 98 100 98 100 102 108 117 124 129 126 122 121 116 113 115
170 170 171 171 167 163 162 164 166 164 158 153 151 150 149 147 145 143 143 145 146 145 141 136 134 132 132 131 130 128 127 126 123 119 114 110 107 100 97 94 93 93 93 92 90 89 88 86 87 92 97 96 91 90 90 91 94 91 87 85 86 87 87 89 87 86 85 88 89 88 94 95 94 96 97 98 100 106 112 120 126 122 113 114 117
172 173 174 174 170 167 166 167 167 162 157 154 150 151 153 152 148 145 143 144 146 145 141 137 138 137 136 135 133 132 129 128 124 120 116 112 109 103 99 95 94 94 92 92 92 93 93 90 89 91 96 97 93 89 89 91 92 90 87 83 83 86 92 92 88 87 87 88 90 89 87 87 86 85 90 99 99 96 101 118 129 119 112 117 118
173 175 176 176 172 170 170 168 166 161 158 155 152 154 155 154 152 149 144 144 146 143 141 140 140 141 140 139 137 135 130 128 125 121 118 115 112 108 103 99 98 95 93 93 93 94 94 93 93 93 96 98 95 90 86 84 84 83 84 82 81 86 94 97 94 91 90 91 93 90 85 84 82 77 76 85 97 100 97 102 110 116 126 129 125
174 177 177 176 175 174 172 170 166 162 160 157 155 156 155 156 155 151 146 146 148 144 144 144 143 144 143 141 139 136 132 129 127 123 118 116 114 112 106 101 100 96 96 92 87 91 88 85 90 93 96 99 97 94 89 83 79 75 76 78 78 81 85 93 98 97 95 94 94 90 84 80 77 73 69 71 80 91 101 107 104 114 137 146 143
176 179 179 178 178 177 175 172 167 163 161 159 157 158 157 158 155 150 148 150 150 148 149 147 145 146 144 142 141 139 135 132 131 127 118 110 108 109 106 99 96 96 97 91 83 88 83 77 87 96 100 103 102 98 91 85 81 75 72 71 69 72 73 78 88 97 101 99 98 92 88 86 80 76 71 67 68 70 81 108 125 124 127 141 153
177 182 182 181 181 180 176 173 169 165 164 162 159 160 159 157 155 152 153 153 151 152 152 148 148 147 145 144 146 145 141 137 135 134 124 109 100 98 103 104 101 98 93 88 87 88 81 77 87 100 107 111 109 100 92 84 80 76 71 68 65 65 66 67 72 81 92 100 102 98 99 100 94 87 78 70 65 61 64 87 119 125 119 127 144
178 183 185 184 183 182 179 174 172 169 168 166 162 162 161 159 158 156 155 154 152 155 155 151 151 150 149 150 153 153 150 146 143 144 139 122 108 96 100 109 111 106 94 89 87 82 79 85 93 103 113 120 117 105 94 86 82 78 74 70 65 63 63 63 64 68 74 85 99 105 109 111 107 97 84 70 61 58 60 75 103 113 111 113 116
179 183 186 186 185 184 181 177 175 173 171 170 166 165 165 164 162 159 155 155 155 156 154 152 153 153 153 154 157 159 158 156 156 158 159 149 135 121 111 109 116 119 115 107 95 80 66 134 127 119 125 131 128 113 98 92 87 81 76 71 65 60 58 58 56 59 63 68 86 111 117 114 117 108 93 78 62 59 59 67 89 101 101 96 89
180 183 186 187 187 185 182 179 178 175 173 172 170 168 168 167 164 160 157 157 158 156 153 152 153 153 154 156 158 159 157 158 161 168 172 168 157 150 142 126 126 128 136 144 138 299 295 273 244 198 165 154 143 118 97 93 87 81 74 65 59 54 52 52 49 49 54 61 77 114 128 120 124 123 107 93 76 67 62 64 73 82 87 85 81
182 184 186 187 188 186 182 181 179 177 175 174 172 171 172 170 166 162 161 161 161 160 157 155 154 155 156 157 158 157 156 153 153 163 169 169 164 162 162 159 154 146 161 186 220 264 272 266 267 255 232 212 198 158 102 92 83 77 67 53 44 41 44 46 43 42 47 56 76 112 130 124 127 123 114 112 95 82 73 69 68 71 69 65 72
186 187 187 187 187 186 182 180 179 177 177 174 172 173 174 173 169 166 166 166 166 166 163 160 159 159 159 158 159 157 154 148 141 144 152 154 156 163 169 168 169 158 168 186 208 246 249 244 255 255 252 242 230 211 168 129 85 73 58 41 28 23 32 44 38 37 44 52 64 112 134 135 139 139 132 133 114 104 96 78 67 66 66 59 58
189 189 188 188 188 186 182 180 178 177 176 175 172 173 175 175 173 171 171 171 172 173 169 166 164 163 162 160 158 157 154 148 140 137 137 138 146 159 168 169 173 166 154 160 184 220 221 223 231 231 242 244 225 204 187 190 147 83 54 33 15 8 24 45 39 33 41 53 61 110 144 145 146 148 151 146 128 132 111 74 54 49 57 56 52
191 190 189 189 188 186 183 180 178 177 175 174 171 171 173 174 175 175 174 175 176 177 174 171 170 169 166 162 160 159 156 151 144 140 134 130 138 153 163 173 180 173 154 154 168 184 185 188 196 214 234 240 210 198 187 184 168 104 50 28 8 6 36 56 42 33 37 54 73 113 137 145 149 145 141 150 167 156 100 74 325 352 18 31 34
193 191 191 190 188 187 184 182 180 179 176 175 173 172 171 171 174 176 175 177 179 181 179 175 176 177 172 166 164 161 157 151 145 143 139 131 136 150 165 177 169 154 158 161 159 166 171 169 177 222 242 233 187 189 186 182 173 133 55 24 9 16 62 62 36 33 37 58 85 113 124 133 148 147 134 171 212 186 177 237 263 275 303 334 332
195 192 193 192 190 188 186 185 184 182 180 178 178 175 173 172 173 174 175 178 181 183 184 182 184 187 183 175 169 163 157 152 148 148 144 137 141 155 176 183 160 145 149 135 127 132 133 138 132 59 97 124 149 174 187 193 181 149 75 9 10 38 74 58 32 33 43 69 97 117 121 123 132 145 178 252 255 235 224 232 252 262 272 289 292
199 195 194 193 191 190 189 189 188 186 184 183 183 180 177 177 177 178 179 180 182 184 187 189 191 194 194 188 179 170 162 156 152 151 146 140 143 157 183 185 161 153 130 103 105 108 102 102 97 76 87 118 144 174 191 197 175 154 134 13 48 78 74 47 29 37 62 97 108 118 127 127 133 151 169 202 253 261 246 229 237 256 270 278 279
203 199 196 195 194 193 191 192 192 191 190 189 188 185 183 182 182 183 185 186 186 187 190 193 196 198 199 196 189 180 171 163 160 155 147 141 142 161 184 180 162 163 118 104 113 113 99 90 110 106 102 136 171 192 197 193 166 156 179 65 90 95 75 40 26 50 92 120 115 115 121 121 130 152 160 165 203 247 250 231 225 242 255 271 278
205 203 199 197 197 196 195 195 196 196 195 195 194 191 189 188 187 188 192 193 194 194 196 198 198 201 202 199 194 188 180 170 165 158 149 143 151 171 184 175 169 176 140 128 136 135 130 120 150 175 171 175 210 214 201 192 170 166 194 141 118 105 82 50 41 79 109 120 115 111 107 102 101 102 105 116 149 226 252 232 222 228 237 254 268
207 207 204 201 200 199 199 199 199 199 199 199 199 197 195 194 194 195 198 199 201 201 202 204 201 202 203 201 198 194 187 178 173 167 155 153 166 177 177 170 179 179 155 173 168 160 166 182 214 226 201 186 250 232 191 178 166 172 187 164 137 112 92 59 64 103 115 116 113 104 92 89 84 76 64 61 68 55 312 253 236 234 239 242 247
209 210 208 205 204 204 203 203 203 203 203 204 203 202 201 201 200 201 203 205 207 207 207 209 206 205 203 202 204 200 194 190 186 184 176 174 184 188 170 153 172 192 186 202 176 169 183 213 238 243 208 169 130 126 152 158 154 158 167 162 142 115 90 69 94 115 119 117 112 101 89 83 78 71 55 50 48 41 34 14 326 259 268 257 247
212 212 211 209 207 207 207 207 207 206 207 207 207 207 206 205 206 206 207 209 210 211 211 212 211 210 207 203 205 204 199 197 194 193 192 194 203 213 207 173 179 218 217 233 207 190 201 215 226 234 212 177 145 126 134 148 147 154 164 161 145 102 46 57 119 121 124 120 111 100 87 76 69 75 75 65 52 38 36 34 36 36 331 289 270
213 214 214 212 210 209 210 210 210 210 210 210 210 210 210 209 209 209 210 211 213 214 215 215 214 214 213 207 205 204 200 196 196 193 194 201 209 219 223 215 214 224 227 240 248 231 212 210 216 225 218 202 173 144 140 151 160 191 189 182 179 343 353 50 147 131 130 123 110 97 83 74 67 72 76 72 72 67 59 52 39 22 331 305 300
214 215 215 215 213 212 212 212 212 212 212 213 213 213 213 213 213 213 212 213 216 218 219 219 217 218 219 214 207 205 202 198 197 197 200 208 214 222 225 223 223 226 233 247 261 257 228 216 217 223 227 227 221 206 197 202 219 215 199 195 211 319 343 328 166 150 144 134 117 107 92 80 71 68 66 66 72 74 71 62 43 21 347 328 318
216 217 217 217 216 215 214 214 214 214 214 215 216 216 217 218 218 219 218 218 219 221 223 223 221 222 223 222 215 209 207 205 204 206 210 218 223 226 224 223 223 224 230 244 259 268 248 231 225 228 236 238 241 240 235 235 248 241 209 209 246 307 327 311 206 190 183 173 154 135 124 101 80 69 61 64 75 74 67 51 34 18 358 345 337
217 218 218 217 217 216 216 216 216 217 217 217 217 218 220 221 222 224 225 225 226 225 226 226 224 224 224 225 223 215 211 210 210 212 216 221 223 224 223 223 221 219 223 234 247 261 254 236 227 231 240 248 259 259 249 247 253 250 230 247 303 320 331 321 264 248 233 211 202 207 198 185 140 90 62 72 98 85 65 44 25 11 357 343 336
217 218 218 218 218 217 217 217 217 218 219 220 220 220 222 223 224 226 227 229 229 229 229 227 225 224 223 224 225 221 217 215 213 213 214 215 215 218 222 224 224 221 222 226 235 248 253 241 228 230 240 247 259 264 253 248 247 246 244 258 299 323 347 338 313 281 268 252 245 254 249 242 252 254 250 197 184 169 60 28 18 12 5 354 348
218 219 219 220 220 219 218 218 218 219 220 221 222 222 223 224 224 225 226 227 228 228 228 226 225 225 224 224 225 224 223 221 219 215 212 209 208 211 217 224 227 226 225 224 227 238 252 255 241 237 240 238 246 258 249 241 242 249 258 266 265 260 290 322 332 319 308 298 276 273 276 267 264 266 253 228 222 225 249 321 353 6 10 9 8
218 219 220 221 221 220 219 218 219 220 221 222 223 224 225 225 226 226 228 228 229 229 229 228 227 227 227 227 227 227 227 227 225 220 214 210 207 210 214 219 226 227 227 225 224 228 239 248 249 245 242 237 241 253 254 245 244 251 262 269 269 257 264 291 315 325 323 321 308 292 285 283 285 284 266 245 241 239 247 274 307 335 358 7 8
217 219 220 221 221 221 220 220 221 221 222 223 223 224 225 226 227 228 229 231 232 233 234 232 230 228 228 228 228 229 229 230 230 226 220 215 209 209 213 216 224 228 229 229 225 224 229 240 249 249 248 245 243 248 255 251 247 253 257 263 273 269 263 271 286 306 311 308 311 310 303 304 306 302 286 268 258 247 248 264 284 300 316 332 341
216 219 220 221 222 222 221 221 222 222 222 223 223 224 225 226 227 229 231 231 233 235 236 235 233 230 229 228 228 229 230 230 232 230 227 222 214 209 211 217 224 230 233 234 231 227 229 238 249 255 252 248 245 245 250 254 250 250 254 259 266 271 271 272 278 295 303 301 302 305 310 315 321 321 307 279 267 257 254 263 273 286 293 300 309
217 219 221 222 222 222 222 222 222 222 222 222 222 223 224 226 227 229 231 232 232 234 235 235 235 233 232 230 229 228 229 231 232 233 231 228 220 212 212 216 221 229 233 234 235 234 234 238 247 256 257 252 249 248 250 253 252 250 255 259 259 262 269 273 276 288 298 301 300 299 303 307 312 315 311 290 275 265 261 265 273 283 287 287 290
217 219 221 222 223 222 222 222 222 222 222 221 221 222 223 225 226 228 229 230 232 233 234 234 234 234 233 231 230 229 230 231 234 234 232 230 224 217 215 217 220 224 228 231 236 238 237 237 243 251 260 261 256 253 253 254 255 255 256 257 258 261 263 265 270 275 285 294 295 297 299 299 300 304 306 297 280 271 269 273 276 280 283 281 279
Height
1550 1551 1553 1553 1555 1556 1558 1559 1561 1562 1562 1563 1564 1566 1567 1569 1570 1571 1572 1573 1573 1575 1575 1576 1577 1577 1578 1578 1579 1579 1579 1579 1580 1580 1580 1581 1581 1582 1582 1582 1583 1583 1583 1583 1583 1583 1584 1584 1584 1584 1584 1584 1584 1584 1584 1584 1584 1584 1585 1585 1585 1586 1586 1586 1586 1586 1587 1587 1587 1587 1588 1588 1588 1588 1588 1588 1588 1588 1589 1589 1590 1590 1591 1592 1592
1550 1552 1553 1554 1556 1557 1558 1559 1561 1562 1564 1565 1566 1568 1569 1570 1571 1572 1573 1574 1574 1575 1576 1577 1577 1578 1579 1579 1579 1579 1580 1580 1580 1581 1581 1582 1582 1583 1583 1584 1584 1584 1584 1584 1585 1585 1585 1585 1585 1585 1585 1585 1584 1585 1585 1585 1585 1585 1585 1586 1586 1586 1587 1587 1587 1587 1588 1588 1588 1588 1589 1588 1589 1588 1588 1588 1589 1589 1589 1590 1590 1591 1592 1592 1593
1551 1553 1554 1555 1556 1558 1559 1560 1562 1563 1565 1566 1567 1569 1570 1571 1572 1573 1574 1575 1575 1576 1577 1578 1578 1579 1579 1579 1580 1580 1580 1581 1581 1582 1582 1583 1583 1584 1584 1585 1585 1585 1585 1585 1586 1586 1586 1586 1586 1586 1586 1586 1586 1586 1586 1586 1586 1586 1586 1587 1587 1587 1588 1588 1588 1588 1589 1589 1589 1589 1590 1590 1589 1589 1589 1589 1589 1589 1590 1590 1591 1592 1592 1593 1593
1552 1554 1555 1557 1557 1559 1561 1562 1563 1564 1566 1567 1568 1569 1571 1572 1573 1574 1574 1575 1576 1577 1578 1578 1579 1579 1580 1580 1580 1581 1581 1582 1582 1583 1583 1584 1584 1585 1585 1586 1586 1586 1586 1587 1587 1587 1587 1587 1587 1586 1586 1587 1587 1588 1588 1588 1587 1588 1588 1588 1588 1588 1588 1589 1589 1589 1590 1590 1590 1591 1591 1591 1591 1590 1590 1590 1590 1590 1591 1591 1592 1592 1593 1593 1594
1553 1554 1556 1557 1559 1561 1562 1563 1564 1565 1567 1568 1569 1570 1571 1572 1573 1574 1575 1576 1577 1578 1578 1579 1579 1580 1580 1580 1581 1582 1582 1583 1583 1584 1584 1585 1585 1586 1586 1586 1587 1587 1587 1587 1588 1588 1588 1588 1588 1587 1587 1588 1588 1588 1589 1589 1589 1589 1589 1589 1589 1589 1589 1589 1590 1590 1590 1591 1591 1591 1592 1592 1592 1592 1591 1592 1592 1592 1592 1592 1592 1593 1593 1594 1595
1554 1555 1557 1558 1560 1562 1563 1564 1565 1567 1568 1569 1570 1571 1572 1573 1574 1575 1576 1577 1577 1578 1579 1579 1580 1580 1581 1581 1582 1582 1583 1584 1584 1585 1585 1586 1586 1587 1587 1587 1588 1588 1588 1588 1589 1589 1589 1589 1589 1589 1589 1589 1589 1590 1590 1590 1591 1590 1590 1590 1590 1590 1590 1591 1591 1591 1592 1592 1592 1592 1593 1594 1594 1594 1594 1595 1596 1596 1595 1595 1594 1594 1595 1595 1596
1554 1556 1558 1559 1561 1563 1564 1565 1566 1568 1569 1570 1571 1572 1572 1573 1574 1575 1576 1577 1578 1579 1579 1580 1580 1581 1582 1582 1583 1584 1584 1585 1586 1586 1586 1587 1587 1587 1588 1588 1588 1589 1589 1589 1589 1590 1590 1590 1590 1590 1590 1590 1590 1590 1591 1592 1592 1592 1591 1591 1591 1591 1592 1592 1592 1593 1593 1593 1593 1594 1594 1595 1595 1596 1596 1597 1599 1598 1599 1599 1599 1598 1597 1597 1597
1555 1557 1559 1560 1562 1564 1565 1566 1567 1568 1569 1570 1571 1572 1573 1574 1575 1576 1577 1577 1578 1579 1580 1580 1581 1582 1582 1583 1584 1585 1585 1586 1586 1587 1587 1588 1588 1588 1588 1589 1589 1589 1590 1590 1590 1591 1591 1591 1591 1591 1591 1591 1591 1591 1592 1592 1592 1592 1592 1592 1593 1593 1593 1593 1594 1594 1594 1594 1595 1595 1595 1595 1596 1596 1596 1598 1599 1599 1599 1601 1602 1602 1600 1599 1599
1556 1558 1560 1562 1563 1565 1566 1567 1568 1569 1570 1571 1572 1573 1574 1575 1576 1577 1577 1578 1579 1580 1581 1581 1582 1582 1583 1584 1585 1586 1586 1587 1587 1588 1588 1589 1589 1589 1589 1590 1590 1590 1591 1591 1591 1591 1592 1592 1592 1592 1592 1592 1592 1592 1593 1593 1593 1593 1593 1593 1594 1594 1594 1594 1595 1595 1595 1596 1596 1596 1596 1596 1596 1597 1597 1598 1599 1599 1599 1600 1601 1602 1603 1602 1602
1557 1559 1561 1563 1564 1566 1567 1568 1569 1570 1571 1572 1573 1574 1575 1576 1577 1578 1578 1579 1580 1580 1581 1582 1582 1583 1584 1585 1586 1586 1587 1588 1588 1589 1589 1590 1590 1590 1590 1590 1591 1591 1591 1592 1592 1592 1593 1593 1593 1593 1593 1593 1593 1593 1594 1594 1594 1594 1594 1594 1595 1595 1595 1596 1596 1596 1597 1597 1597 1597 1596 1596 1597 1598 1598 1599 1600 1600 1600 1600 1600 1601 1604 1605 1604
1558 1560 1562 1563 1565 1567 1568 1569 1570 1571 1572 1573 1574 1575 1576 1576 1577 1578 1579 1580 1580 1581 1582 1583 1583 1584 1585 1586 1587 1587 1588 1588 1589 1590 1590 1590 1591 1591 1591 1591 1592 1592 1592 1592 1593 1593 1594 1594 1594 1594 1594 1594 1594 1594 1595 1595 1595 1595 1595 1596 1596 1596 1596 1597 1597 1597 1597 1598 1598 1598 1597 1597 1598 1599 1599 1600 1600 1600 1601 1601 1601 1600 1604 1606 1605
1558 1560 1562 1564 1566 1568 1569 1570 1571 1572 1573 1574 1575 1576 1576 1577 1578 1579 1580 1580 1581 1582 1583 1584 1584 1585 1586 1587 1587 1588 1589 1589 1590 1590 1591 1591 1592 1592 1592 1592 1593 1593 1593 1593 1594 1594 1595 1595 1595 1595 1595 1595 1595 1595 1596 1596 1596 1596 1596 1597 1597 1597 1598 1598 1599 1599 1599 1599 1599 1599 1599 1599 1599 1600 1600 1600 1601 1602 1602 1603 1603 1602 1604 1606 1606
1559 1561 1563 1565 1567 1568 1570 1571 1572 1573 1574 1574 1575 1576 1577 1578 1579 1580 1581 1581 1582 1583 1584 1585 1585 1586 1587 1588 1588 1589 1590 1590 1591 1591 1592 1592 1593 1593 1593 1593 1593 1594 1594 1594 1595 1595 1596 1596 1596 1596 1596 1596 1596 1596 1597 1597 1597 1597 1598 1598 1598 1598 1599 1599 1600 1600 1600 1600 1600 1600 1600 1600 1600 1600 1601 1601 1602 1603 1603 1603 1604 1604 1606 1607 1608
1559 1561 1564 1566 1567 1569 1571 1572 1573 1574 1574 1575 1576 1577 1578 1579 1580 1580 1581 1582 1583 1584 1585 1586 1587 1587 1588 1588 1589 1590 1590 1591 1592 1592 1593 1593 1593 1594 1594 1594 1594 1595 1595 1595 1596 1596 1597 1597 1597 1597 1597 1597 1597 1597 1598 1598 1598 1598 1599 1599 1599 1600 1600 1600 1601 1601 1601 1601 1601 1601 1602 1602 1602 1602 1602 1603 1603 1604 1605 1605 1606 1607 1607 1608 1608
1560 1562 1564 1566 1568 1570 1571 1573 1574 1574 1575 1576 1577 1578 1579 1579 1580 1581 1582 1583 1584 1585 1586 1587 1588 1588 1589 1589 1590 1590 1591 1592 1593 1593 1594 1594 1594 1595 1595 1595 1595 1596 1596 1596 1597 1597 1598 1598 1598 1598 1598 1599 1598 1598 1598 1599 1599 1599 1600 1600 1600 1601 1601 1601 1602 1602 1602 1602 1602 1602 1603 1603 1603 1604 1604 1604 1604 1605 1606 1607 1608 1608 1608 1609 1609
1561 1563 1565 1567 1568 1570 1572 1573 1574 1575 1576 1577 1578 1579 1579 1580 1581 1582 1583 1584 1585 1586 1587 1588 1588 1589 1590 1590 1591 1591 1592 1593 1594 1594 1595 1595 1595 1596 1596 1596 1596 1597 1597 1597 1598 1598 1599 1599 1599 1600 1600 1600 1599 1600 1600 1600 1600 1600 1601 1601 1601 1602 1602 1603 1603 1603 1604 1603 1603 1603 1603 1604 1604 1605 1605 1606 1606 1606 1607 1608 1609 1609 1610 1610 1610
1562 1564 1565 1567 1569 1571 1572 1574 1575 1576 1577 1578 1578 1579 1580 1581 1582 1583 1584 1585 1586 1586 1587 1589 1589 1590 1591 1591 1592 1593 1593 1594 1595 1595 1596 1596 1596 1597 1597 1597 1597 1598 1598 1598 1599 1599 1600 1600 1600 1601 1601 1601 1601 1601 1601 1601 1601 1601 1602 1602 1602 1603 1603 1604 1604 1604 1605 1605 1605 1605 1604 1605 1605 1606 1606 1606 1606 1607 1608 1609 1610 1610 1610 1611 1611
1563 1565 1566 1568 1569 1571 1573 1574 1576 1577 1577 1578 1579 1580 1581 1582 1583 1584 1585 1586 1586 1587 1588 1589 1590 1591 1592 1593 1593 1594 1595 1595 1596 1596 1597 1597 1597 1598 1598 1598 1598 1599 1599 1599 1600 1600 1601 1601 1601 1602 1602 1602 1602 1602 1602 1602 1602 1603 1603 1603 1603 1604 1604 1604 1605 1605 1606 1606 1606 1606 1606 1606 1606 1607 1607 1608 1608 1609 1610 1611 1611 1611 1611 1612 1611
1564 1565 1567 1569 1570 1572 1573 1575 1576 1577 1578 1579 1580 1581 1582 1583 1584 1585 1585 1586 1587 1588 1589 1590 1591 1592 1593 1594 1594 1595 1596 1596 1597 1597 1598 1598 1599 1599 1599 1599 1599 1600 1600 1600 1601 1601 1602 1602 1602 1603 1603 1603 1603 1603 1603 1603 1603 1604 1604 1604 1604 1604 1605 1605 1606 1606 1607 1607 1607 1608 1608 1608 1608 1608 1609 1609 1610 1610 1611 1612 1612 1612 1612 1612 1612
1564 1566 1567 1569 1570 1572 1573 1575 1576 1577 1578 1579 1581 1582 1583 1583 1584 1585 1586 1587 1588 1589 1590 1591 1592 1593 1594 1594 1595 1596 1597 1597 1598 1598 1599 1599 1600 1600 1600 1600 1600 1601 1601 1601 1602 1602 1603 1603 1603 1604 1604 1604 1604 1604 1604 1604 1604 1605 1605 1605 1605 1605 1606 1606 1607 1607 1608 1608 1609 1609 1609 1609 1609 1609 1610 1610 1610 1611 1612 1612 1612 1612 1613 1613 1613
1564 1566 1567 1569 1571 1572 1574 1575 1576 1577 1579 1580 1581 1582 1583 1584 1585 1586 1587 1588 1589 1590 1591 1592 1593 1594 1594 1595 1596 1597 1598 1598 1599 1599 1600 1600 1600 1601 1601 1601 1602 1602 1602 1602 1603 1603 1604 1604 1604 1604 1605 1605 1605 1605 1605 1605 1605 1605 1605 1606 1606 1606 1607 1607 1607 1608 1608 1609 1609 1610 1610 1610 1610 1610 1611 1611 1611 1611 1612 1613 1613 1613 1613 1613 1613
1563 1566 1567 1569 1571 1572 1574 1575 1576 1578 1579 1580 1581 1582 1583 1584 1586 1586 1587 1589 1589 1591 1592 1593 1594 1594 1595 1596 1597 1598 1599 1599 1600 1600 1601 1601 1601 1602 1602 1602 1603 1603 1604 1604 1604 1604 1604 1605 1605 1605 1606 1606 1606 1607 1607 1607 1607 1607 1607 1607 1607 1608 1608 1608 1608 1608 1609 1610 1610 1610 1610 1610 1611 1611 1611 1611 1612 1612 1612 1613 1613 1613 1613 1614 1614
1563 1565 1567 1569 1571 1572 1574 1575 1576 1578 1579 1581 1582 1583 1584 1585 1586 1587 1588 1589 1590 1592 1593 1593 1594 1595 1596 1597 1598 1598 1599 1600 1600 1601 1601 1602 1602 1603 1603 1604 1604 1604 1605 1605 1605 1605 1605 1606 1606 1606 1607 1607 1607 1608 1608 1608 1608 1608 1608 1608 1609 1609 1609 1609 1609 1609 1610 1610 1611 1611 1611 1611 1611 1612 1612 1612 1612 1612 1613 1613 1613 1613 1614 1614 1614
1562 1564 1566 1568 1570 1572 1574 1575 1576 1578 1580 1581 1582 1583 1584 1585 1586 1588 1589 1590 1591 1592 1593 1594 1595 1596 1597 1598 1599 1599 1600 1600 1601 1601 1602 1603 1603 1604 1604 1605 1605 1605 1606 1606 1606 1606 1607 1607 1607 1607 1608 1608 1608 1609 1609 1609 1610 1610 1610 1610 1610 1610 1610 1610 1610 1610 1610 1611 1611 1611 1611 1612 1612 1612 1613 1613 1613 1613 1613 1613 1613 1614 1614 1614 1614
1562 1564 1566 1568 1570 1572 1573 1575 1577 1578 1580 1581 1582 1584 1585 1586 1587 1588 1589 1590 1592 1593 1594 1595 1595 1596 1597 1598 1599 1600 1600 1601 1602 1602 1603 1604 1604 1605 1605 1605 1606 1606 1607 1607 1607 1607 1607 1608 1608 1608 1609 1609 1610 1610 1610 1611 1611 1611 1611 1611 1611 1611 1611 1611 1611 1611 1611 1611 1612 1612 1612 1612 1612 1613 1613 1614 1614 1614 1614 1614 1614 1614 1614 1614 1614
1562 1564 1565 1567 1569 1572 1573 1575 1577 1578 1580 1581 1582 1584 1585 1586 1587 1588 1590 1591 1592 1593 1594 1595 1596 1597 1598 1599 1600 1600 1601 1602 1602 1603 1604 1604 1605 1605 1606 1606 1606 1607 1607 1607 1608 1608 1608 1609 1609 1609 1610 1610 1611 1611 1611 1612 1612 1612 1612 1612 1612 1612 1612 1612 1612 1612 1612 1612 1612 1612 1612 1613 1613 1613 1614 1614 1614 1614 1614 1614 1614 1614 1615 1615 1615
1561 1563 1565 1567 1569 1571 1573 1575 1576 1578 1580 1581 1582 1584 1585 1586 1587 1588 1590 1591 1592 1593 1594 1595 1596 1597 1598 1599 1600 1601 1602 1602 1603 1603 1604 1605 1605 1606 1606 1607 1607 1607 1608 1608 1609 1609 1609 1609 1610 1610 1611 1611 1612 1612 1612 1612 1613 1613 1613 1613 1613 1613 1613 1613 1613 1613 1613 1613 1613 1613 1613 1613 1614 1614 1614 1614 1615 1615 1615 1615 1615 1615 1615 1616 1616
1560 1562 1564 1566 1568 1570 1572 1574 1576 1578 1579 1581 1582 1584 1585 1586 1587 1588 1589 1591 1592 1594 1594 1596 1597 1598 1598 1600 1601 1602 1602 1603 1603 1604 1604 1605 1605 1606 1607 1607 1608 1608 1608 1609 1609 1609 1610 1610 1610 1610 1611 1612 1612 1612 1613 1613 1613 1614 1614 1614 1614 1614 1614 1613 1613 1613 1613 1613 1613 1613 1613 1614 1614 1614 1615 1615 1615 1615 1616 1616 1616 1616 1616 1616 1617
1559 1561 1563 1566 1568 1570 1572 1574 1576 1578 1579 1581 1582 1583 1585 1586 1587 1588 1589 1591 1592 1594 1595 1596 1597 1598 1599 1600 1601 1602 1603 1603 1604 1604 1605 1605 1606 1606 1607 1608 1608 1609 1609 1609 1609 1609 1610 1610 1610 1611 1611 1612 1612 1613 1613 1613 1614 1614 1614 1614 1614 1614 1614 1614 1614 1614 1614 1614 1614 1614 1614 1614 1614 1615 1615 1615 1616 1616 1616 1617 1617 1617 1617 1617 1617
1559 1561 1563 1565 1567 1569 1571 1573 1575 1577 1579 1580 1582 1583 1585 1586 1587 1588 1590 1591 1592 1594 1595 1596 1597 1598 1599 1600 1601 1602 1603 1604 1604 1605 1605 1605 1606 1607 1607 1608 1608 1609 1609 1609 1610 1610 1610 1610 1610 1611 1611 1612 1612 1613 1613 1614 1614 1615 1615 1615 1615 1615 1615 1614 1614 1614 1614 1614 1614 1614 1614 1614 1615 1615 1615 1616 1616 1616 1617 1617 1617 1617 1617 1617 1618
1558 1560 1562 1565 1567 1569 1571 1573 1575 1577 1579 1580 1581 1583 1585 1586 1587 1588 1590 1591 1592 1594 1595 1596 1597 1598 1599 1600 1601 1602 1603 1604 1604 1605 1606 1606 1606 1607 1608 1608 1609 1609 1609 1610 1610 1610 1610 1610 1611 1611 1611 1612 1612 1613 1614 1614 1615 1615 1615 1616 1616 1615 1615 1615 1615 1615 1615 1615 1615 1615 1615 1615 1615 1615 1616 1616 1616 1617 1617 1617 1617 1618 1618 1618 1618
1557 1559 1562 1564 1566 1568 1571 1572 1574 1576 1578 1580 1581 1583 1584 1586 1587 1589 1590 1591 1593 1594 1595 1596 1598 1599 1600 1600 1601 1602 1603 1604 1604 1605 1606 1606 1607 1608 1608 1609 1609 1609 1610 1610 1610 1610 1610 1611 1611 1611 1612 1612 1612 1613 1614 1614 1615 1615 1616 1616 1616 1616 1616 1615 1615 1615 1615 1615 1615 1615 1615 1615 1615 1616 1616 1616 1617 1617 1617 1618 1618 1618 1618 1618 1618
1556 1559 1561 1563 1566 1568 1570 1572 1574 1576 1578 1580 1581 1583 1584 1586 1587 1589 1590 1591 1593 1594 1596 1597 1598 1599 1600 1601 1602 1602 1603 1604 1605 1605 1606 1607 1607 1608 1609 1609 1609 1610 1610 1610 1610 1610 1611 1611 1611 1611 1612 1612 1612 1613 1614 1614 1615 1615 1616 1616 1616 1616 1616 1616 1616 1615 1615 1615 1615 1615 1615 1616 1616 1616 1616 1616 1617 1617 1617 1618 1618 1618 1618 1618 1618
1555 1558 1560 1562 1565 1567 1569 1571 1573 1575 1577 1579 1581 1582 1584 1586 1587 1589 1590 1591 1593 1594 1596 1597 1598 1599 1600 1601 1602 1603 1603 1604 1605 1606 1606 1607 1608 1608 1609 1609 1609 1610 1610 1610 1611 1611 1611 1611 1611 1612 1612 1612 1613 1613 1614 1614 1615 1616 1616 1616 1616 1616 1616 1616 1616 1616 1616 1615 1615 1616 1616 1616 1616 1617 1617 1617 1617 1617 1617 1617 1617 1618 1618 1618 1618
1554 1556 1559 1562 1564 1566 1568 1570 1572 1574 1576 1578 1580 1582 1584 1585 1587 1588 1590 1591 1593 1594 1596 1597 1598 1599 1600 1601 1602 1603 1604 1604 1605 1606 1607 1607 1608 1608 1609 1609 1610 1610 1610 1611 1611 1611 1612 1612 1612 1612 1612 1613 1613 1613 1614 1615 1615 1616 1616 1617 1617 1617 1617 1617 1616 1616 1616 1616 1616 1616 1616 1616 1616 1617 1617 1617 1617 1617 1617 1617 1617 1617 1617 1618 1618
1552 1555 1558 1561 1563 1565 1567 1569 1572 1574 1576 1578 1580 1582 1583 1585 1587 1588 1590 1591 1593 1594 1595 1597 1598 1599 1600 1601 1602 1603 1604 1605 1605 1606 1607 1608 1608 1609 1609 1610 1610 1610 1610 1611 1611 1612 1612 1612 1612 1613 1613 1613 1613 1614 1614 1615 1615 1616 1617 1617 1617 1617 1617 1617 1616 1616 1616 1616 1616 1616 1617 1617 1617 1617 1617 1617 1617 1617 1617 1617 1617 1617 1617 1617 1618
1551 1554 1557 1559 1561 1564 1566 1568 1571 1573 1575 1577 1579 1581 1583 1585 1586 1588 1589 1591 1592 1594 1595 1596 1597 1599 1600 1601 1602 1603 1604 1605 1606 1606 1607 1608 1608 1609 1609 1610 1610 1610 1611 1611 1612 1612 1612 1613 1613 1613 1613 1614 1614 1614 1615 1615 1616 1616 1617 1617 1617 1617 1617 1617 1616 1616 1616 1616 1617 1617 1617 1617 1617 1617 1617 1617 1617 1617 1617 1617 1617 1617 1617 1617 1617
1550 1553 1556 1558 1560 1563 1565 1567 1570 1572 1574 1576 1578 1580 1582 1584 1586 1587 1589 1590 1592 1593 1594 1595 1597 1598 1599 1601 1602 1603 1604 1605 1606 1607 1607 1608 1609 1609 1609 1610 1610 1611 1611 1612 1612 1613 1613 1613 1613 1613 1613 1614 1614 1614 1615 1615 1616 1617 1617 1617 1617 1617 1617 1617 1617 1616 1616 1616 1617 1617 1617 1617 1617 1617 1617 1617 1617 1617 1617 1617 1617 1616 1616 1616 1616
1548 1551 1554 1557 1559 1561 1564 1566 1568 1571 1573 1575 1577 1580 1581 1583 1585 1586 1588 1589 1591 1592 1593 1594 1596 1597 1599 1600 1601 1602 1604 1605 1605 1606 1607 1608 1609 1609 1610 1610 1611 1611 1611 1612 1612 1613 1613 1613 1613 1613 1614 1614 1614 1615 1615 1616 1616 1617 1617 1617 1617 1617 1617 1617 1617 1617 1616 1616 1617 1617 1617 1617 1617 1617 1617 1617 1617 1617 1616 1616 1616 1616 1616 1616 1616
1546 1549 1552 1554 1557 1560 1562 1564 1567 1569 1571 1574 1576 1578 1580 1581 1583 1585 1586 1588 1589 1591 1592 1594 1595 1597 1598 1600 1601 1602 1603 1604 1605 1606 1607 1608 1609 1609 1609 1610 1610 1611 1612 1612 1613 1613 1613 1613 1614 1614 1614 1614 1615 1615 1616 1616 1617 1617 1617 1617 1617 1617 1617 1617 1617 1617 1617 1617 1617 1617 1617 1617 1617 1617 1617 1617 1617 1617 1616 1616 1616 1616 1616 1615 1615
1544 1546 1549 1552 1554 1557 1560 1562 1564 1567 1569 1571 1573 1575 1577 1579 1581 1583 1585 1587 1588 1590 1591 1593 1594 1596 1597 1599 1600 1601 1602 1603 1604 1605 1606 1607 1608 1609 1609 1610 1610 1611 1612 1612 1612 1613 1613 1613 1613 1614 1614 1614 1615 1615 1616 1616 1617 1617 1617 1618 1618 1617 1617 1617 1617 1617 1617 1617 1617 1617 1617 1617 1617 1617 1617 1616 1616 1616 1616 1616 1615 1615 1615 1615 1615
1540 1543 1546 1549 1552 1555 1557 1559 1562 1564 1566 1569 1571 1573 1575 1577 1579 1581 1584 1586 1587 1589 1591 1592 1594 1595 1597 1598 1599 1601 1602 1603 1604 1605 1606 1607 1608 1608 1609 1610 1610 1611 1611 1612 1612 1612 1613 1613 1613 1614 1614 1614 1615 1615 1616 1616 1617 1617 1618 1618 1618 1618 1618 1617 1617 1617 1617 1617 1617 1617 1617 1617 1617 1617 1617 1616 1616 1616 1615 1615 1615 1615 1614 1614 1614
1537 1540 1543 1546 1549 1552 1554 1557 1559 1562 1564 1567 1569 1572 1574 1577 1579 1581 1583 1585 1587 1588 1590 1591 1593 1594 1596 1597 1598 1600 1601 1602 1603 1604 1605 1606 1607 1608 1608 1609 1610 1610 1611 1611 1612 1612 1613 1613 1613 1614 1614 1614 1615 1615 1616 1616 1617 1617 1618 1618 1618 1618 1618 1618 1618 1618 1617 1617 1617 1617 1617 1617 1617 1617 1616 1616 1616 1615 1615 1615 1615 1614 1614 1614 1613
1534 1537 1540 1542 1545 1548 1551 1554 1556 1559 1562 1565 1567 1570 1573 1576 1578 1580 1582 1584 1586 1587 1589 1590 1592 1593 1594 1596 1597 1599 1600 1601 1602 1603 1604 1605 1606 1607 1607 1608 1609 1610 1610 1611 1612 1612 1612 1613 1613 1613 1614 1614 1615 1615 1615 1616 1617 1617 1618 1618 1618 1618 1618 1618 1618 1618 1617 1618 1618 1617 1617 1617 1617 1616 1616 1616 1616 1615 1615 1615 1614 1614 1614 1613 1613
1530 1532 1535 1538 1541 1545 1548 1551 1554 1557 1559 1562 1566 1569 1571 1574 1576 1578 1580 1582 1584 1585 1587 1588 1590 1591 1593 1594 1596 1597 1599 1600 1601 1602 1603 1604 1605 1606 1607 1607 1608 1609 1610 1611 1611 1612 1612 1612 1613 1613 1614 1614 1614 1615 1615 1616 1616 1617 1617 1618 1618 1618 1618 1618 1618 1618 1617 1618 1617 1617 1617 1617 1616 1616 1616 1615 1615 1615 1615 1615 1615 1614 1614 1613 1613
1526 1529 1533 1536 1539 1542 1545 1548 1551 1554 1557 1560 1563 1566 1568 1571 1573 1575 1577 1579 1581 1582 1584 1586 1588 1590 1591 1593 1595 1596 1598 1599 1600 1601 1602 1603 1604 1605 1606 1607 1607 1608 1609 1610 1611 1611 1612 1612 1612 1613 1613 1614 1614 1614 1615 1615 1616 1616 1617 1617 1617 1617 1618 1618 1618 1617 1617 1617 1617 1617 1616 1616 1616 1616 1615 1615 1615 1615 1615 1615 1615 1614 1614 1613 1613
1522 1527 1531 1533 1536 1539 1542 1546 1548 1551 1554 1557 1560 1563 1566 1568 1570 1572 1574 1576 1578 1580 1582 1585 1587 1589 1591 1592 1594 1595 1596 1598 1599 1600 1601 1602 1603 1604 1605 1606 1607 1608 1608 1609 1610 1610 1611 1611 1612 1612 1612 1613 1613 1614 1614 1615 1615 1616 1616 1616 1617 1617 1617 1617 1618 1617 1617 1616 1616 1616 1616 1616 1615 1615 1615 1615 1615 1615 1615 1615 1615 1614 1614 1614 1613
1521 1525 1528 1530 1533 1536 1540 1543 1546 1549 1551 1554 1557 1560 1562 1565 1568 1570 1572 1574 1576 1579 1581 1584 1585 1587 1589 1591 1592 1594 1595 1596 1598 1599 1600 1601 1602 1602 1604 1605 1606 1607 1607 1608 1609 1610 1610 1611 1611 1612 1612 1612 1613 1613 1614 1614 1615 1615 1615 1616 1616 1616 1617 1617 1617 1617 1617 1616 1616 1615 1615 1615 1615 1615 1615 1615 1615 1615 1615 1615 1615 1614 1614 1614 1613
1519 1521 1524 1528 1531 1534 1538 1541 1543 1546 1548 1551 1554 1557 1560 1562 1565 1567 1570 1572 1574 1577 1579 1581 1583 1585 1587 1589 1591 1592 1594 1595 1596 1597 1599 1600 1600 1601 1602 1604 1605 1606 1606 1607 1608 1609 1609 1610 1611 1611 1612 1612 1612 1613 1613 1614 1614 1615 1615 1615 1616 1616 1616 1616 1616 1616 1616 1616 1615 1615 1615 1615 1615 1615 1615 1615 1615 1615 1615 1614 1614 1614 1614 1613 1613
1516 1519 1522 1526 1529 1532 1535 1538 1540 1543 1546 1548 1551 1554 1557 1559 1562 1564 1567 1570 1572 1574 1577 1578 1581 1583 1585 1587 1589 1590 1592 1593 1594 1596 1597 1598 1599 1600 1601 1602 1604 1605 1605 1606 1607 1608 1608 1609 1610 1610 1611 1611 1612 1612 1613 1613 1613 1614 1614 1614 1615 1615 1615 1616 1616 1616 1616 1615 1615 1615 1615 1615 1615 1614 1614 1614 1614 1614 1614 1614 1613 1613 1613 1613 1612
1514 1517 1520 1523 1526 1529 1531 1534 1537 1540 1543 1546 1548 1551 1554 1556 1559 1561 1564 1567 1569 1572 1574 1575 1578 1580 1583 1585 1587 1588 1590 1591 1593 1594 1595 1597 1598 1599 1600 1601 1602 1603 1604 1605 1606 1607 1608 1608 1609 1609 1610 1611 1611 1611 1612 1612 1612 1613 1613 1613 1614 1614 1615 1615 1615 1615 1615 1615 1615 1614 1615 1614 1614 1614 1613 1613 1613 1613 1613 1613 1613 1612 1612 1612 1611